Location: Handeloh
(53.2500°N, 9.8330°E)
Time: 20:25:58
(UTC+01:00)

S-56A Canister/Altair - Pass Details

Date: 21 November 2019
Orbit: 633 x 2499 km, 38.9° (Epoch: 04 December)

Event Time Altitude Azimuth Distance (km) Brightness Sun altitude
Rises 21:30:54 0° 261° (W) 4,040 11.7 -45.3°
Enters shadow 21:34:17 - 245° (WSW) 3,079 10.9 -45.8°
Reaches altitude 10° 21:36:41 10° 226° (SW) 2,598 - -46.1°
Maximum altitude 21:37:52 11° 215° (SW) 2,466 - -46.2°
Drops below altitude 10° 21:39:01 10° 203° (SSW) 2,426 - -46.4°
Sets 21:43:30 0° 163° (SSE) 3,078 - -46.9°
